Location: Newark
(44.1667°N, 8.2500°E)
Time: 15:41:39
(UTC+00:00)

S-56A Canister/Altair - Pass Details

Date: 17 December 2019
Orbit: 634 x 2498 km, 38.9° (Epoch: 18 January)

Event Time Altitude Azimuth Distance (km) Brightness Sun altitude
Rises 08:06:09 0° 240° (WSW) 5,104 11.6 8.9°
Reaches altitude 10° 08:09:12 10° 237° (WSW) 4,326 11.3 9.3°
Maximum altitude 08:21:25 62° 161° (SSE) 2,579 10.8 10.7°
Drops below altitude 10° 08:36:13 10° 86° (E) 5,150 12.3 12.5°
Sets 08:40:11 0° 84° (E) 6,101 12.6 12.9°
